Location: Tucson
(32.2217°N, 110.9265°W)
Time: 14:19:37
(UTC-07:00)

OTV 5 (USA 277) - Visible Passes

Search period start: 20 February 2018 00:00
Search period end: 02 March 2018 00:00
Orbit: 404 x 417 km, 43.0° (Epoch: 07 September)

Date Brightness Start Highest point End Pass type
(mag) Time Alt. Az. Time Alt. Az. Time Alt. Az.
20 Feb ? 04:55:45 20° ESE 04:55:45 20° ESE 04:57:19 10° E visible
20 Feb ? 06:28:40 10° W 06:31:45 37° NNW 06:34:50 10° NE visible
21 Feb ? 05:40:16 54° WNW 05:40:38 59° NNW 05:43:52 10° NE visible
22 Feb ? 04:51:51 18° ENE 04:51:51 18° ENE 04:52:51 10° ENE visible
22 Feb ? 06:24:39 10° WNW 06:27:09 20° NNW 06:29:40 10° NNE visible
23 Feb ? 05:36:06 26° NNW 05:36:06 26° NNW 05:38:47 10° NE visible
24 Feb ? 04:47:30 12° NE 04:47:30 12° NE 04:47:53 10° NE visible
24 Feb ? 06:20:54 10° NW 06:22:43 14° N 06:24:32 10° NNE visible
25 Feb ? 05:31:35 16° N 05:31:35 16° N 05:33:36 10° NNE visible
26 Feb ? 06:16:52 10° NNW 06:18:22 12° N 06:19:52 10° NNE visible
27 Feb ? 05:26:53 13° N 05:27:04 13° N 05:28:38 10° NNE visible
28 Feb ? 06:12:05 10° NNW 06:14:00 15° N 06:15:56 10° NE visible
01 Mar ? 05:22:09 13° N 05:22:43 13° N 05:24:21 10° NE visible
